Time,TemperatureF,DewpointF,PressureIn,WindDirection,WindDirectionDegrees,WindSpeedMPH,WindSpeedGustMPH,Humidity,HourlyPrecipIn,Conditions,Clouds,dailyrainin,SoftwareType,DateUTC
2013-05-25 00:00:00,53.4,38.6,30.45,ENE,60,0.0,5.8,57,-99.99,,,0.00,VWS V14.01,2013-05-25 04:00:00,
2013-05-25 00:30:00,53.4,36.7,30.45,ENE,71,0.0,6.7,53,-99.99,,,0.00,VWS V14.01,2013-05-25 04:30:00,
2013-05-25 01:00:00,52.7,36.5,30.45,ENE,66,0.0,3.1,54,-99.99,,,0.00,VWS V14.01,2013-05-25 05:00:00,
2013-05-25 01:30:00,52.0,36.3,30.45,ENE,70,0.0,4.0,55,-99.99,,,0.00,VWS V14.01,2013-05-25 05:30:00,
2013-05-25 02:00:00,51.6,36.9,30.45,ENE,65,0.0,0.0,57,-99.99,,,0.00,VWS V14.01,2013-05-25 06:00:00,
2013-05-25 02:30:00,50.9,36.7,30.47,East,83,0.0,4.5,58,-99.99,,,0.00,VWS V14.01,2013-05-25 06:30:00,
2013-05-25 03:00:00,50.7,36.5,30.47,ENE,67,0.0,0.0,58,-99.99,,,0.00,VWS V14.01,2013-05-25 07:00:00,
2013-05-25 03:30:00,50.7,35.6,30.45,NE,34,0.0,5.4,56,-99.99,,,0.00,VWS V14.01,2013-05-25 07:30:00,
2013-05-25 04:00:00,50.9,33.9,30.45,ENE,68,0.0,7.4,52,-99.99,,,0.00,VWS V14.01,2013-05-25 08:00:00,
2013-05-25 04:30:00,50.5,34.1,30.45,NE,56,0.0,6.3,53,-99.99,,,0.00,VWS V14.01,2013-05-25 08:30:00,
2013-05-25 05:00:00,50.2,35.1,30.45,NE,43,0.0,5.8,56,-99.99,,,0.00,VWS V14.01,2013-05-25 09:00:00,
2013-05-25 05:30:00,49.3,34.3,30.45,ENE,61,0.0,5.8,56,-99.99,,,0.00,VWS V14.01,2013-05-25 09:30:00,
2013-05-25 06:00:00,48.7,34.6,30.45,ENE,62,0.0,6.7,58,-99.99,,,0.00,VWS V14.01,2013-05-25 10:00:00,
2013-05-25 06:30:00,48.6,35.3,30.47,ENE,59,0.0,5.8,60,-99.99,,,0.00,VWS V14.01,2013-05-25 10:30:00,
2013-05-25 07:00:00,48.6,35.7,30.47,ENE,67,0.0,5.4,61,-99.99,,,0.00,VWS V14.01,2013-05-25 11:00:00,
2013-05-25 07:30:00,49.1,36.7,30.47,ENE,60,0.0,5.4,62,-99.99,,,0.00,VWS V14.01,2013-05-25 11:30:00,
2013-05-25 08:00:00,49.8,36.9,30.50,NE,49,0.0,4.5,61,-99.99,,,0.00,VWS V14.01,2013-05-25 12:00:00,
2013-05-25 08:30:00,50.9,37.5,30.50,NE,52,0.0,7.4,60,-99.99,,,0.00,VWS V14.01,2013-05-25 12:30:00,
2013-05-25 09:00:00,52.3,37.1,30.50,NE,56,0.0,6.9,56,-99.99,,,0.00,VWS V14.01,2013-05-25 13:00:00,
2013-05-25 09:30:00,54.0,38.2,30.50,NE,46,0.0,7.8,55,-99.99,,,0.00,VWS V14.01,2013-05-25 13:30:00,
2013-05-25 10:00:00,55.9,38.1,30.50,NE,53,0.0,6.7,51,-99.99,,,0.00,VWS V14.01,2013-05-25 14:00:00,
2013-05-25 10:30:00,58.1,33.9,30.50,NE,53,0.0,6.7,40,-99.99,,,0.00,VWS V14.01,2013-05-25 14:30:00,
2013-05-25 11:00:00,60.4,34.7,30.50,NE,53,0.0,0.0,38,-99.99,,,0.00,VWS V14.01,2013-05-25 15:00:00,
2013-05-25 11:30:00,62.1,35.5,30.50,SW,230,0.0,3.6,37,-99.99,,,0.00,VWS V14.01,2013-05-25 15:30:00,
2013-05-25 12:00:00,64.4,38.9,30.50,SW,218,0.0,5.4,39,-99.99,,,0.00,VWS V14.01,2013-05-25 16:00:00,
2013-05-25 12:30:00,66.9,39.8,30.50,SW,218,0.0,4.0,37,-99.99,,,0.00,VWS V14.01,2013-05-25 16:30:00,
2013-05-25 13:00:00,69.1,40.3,30.47,SW,216,0.0,5.4,35,-99.99,,,0.00,VWS V14.01,2013-05-25 17:00:00,
2013-05-25 13:30:00,71.4,40.8,30.47,SSW,212,0.0,6.3,33,-99.99,,,0.00,VWS V14.01,2013-05-25 17:30:00,
2013-05-25 14:00:00,71.6,27.2,30.47,SW,215,0.0,10.1,19,-99.99,,,0.00,VWS V14.01,2013-05-25 18:00:00,
2013-05-25 14:30:00,74.5,14.4,30.47,SSW,199,0.0,7.8,10,-99.99,,,0.00,VWS V14.01,2013-05-25 18:30:00,
2013-05-25 15:00:00,75.7,15.4,30.45,ENE,67,5.4,9.2,10,-99.99,,,0.00,VWS V14.01,2013-05-25 19:00:00,
2013-05-25 15:30:00,78.1,26.7,30.45,NE,39,0.0,6.9,15,-99.99,,,0.00,VWS V14.01,2013-05-25 19:30:00,
2013-05-25 16:00:00,77.5,16.7,30.47,SSW,211,0.0,8.7,10,-99.99,,,0.00,VWS V14.01,2013-05-25 20:00:00,
2013-05-25 16:30:00,78.3,17.3,30.45,ENE,67,0.0,5.4,10,-99.99,,,0.00,VWS V14.01,2013-05-25 20:30:00,
2013-05-25 17:00:00,80.1,18.6,30.45,ENE,67,0.0,6.3,10,-99.99,,,0.00,VWS V14.01,2013-05-25 21:00:00,
2013-05-25 17:30:00,79.5,18.2,30.45,ENE,62,0.0,6.7,10,-99.99,,,0.00,VWS V14.01,2013-05-25 21:30:00,
2013-05-25 18:00:00,79.3,18.1,30.45,NNE,23,0.0,5.8,10,-99.99,,,0.00,VWS V14.01,2013-05-25 22:00:00,
2013-05-25 18:30:00,77.7,16.9,30.45,NE,43,0.0,4.5,10,-99.99,,,0.00,VWS V14.01,2013-05-25 22:30:00,
2013-05-25 19:00:00,74.1,14.1,30.42,NE,52,0.0,4.0,10,-99.99,,,0.00,VWS V14.01,2013-05-25 23:00:00,
2013-05-25 19:30:00,69.8,29.3,30.45,NE,50,0.0,0.0,22,-99.99,,,0.00,VWS V14.01,2013-05-25 23:30:00,
2013-05-25 20:00:00,65.8,36.7,30.45,NE,50,0.0,0.0,34,-99.99,,,0.00,VWS V14.01,2013-05-26 00:00:00,
2013-05-25 20:30:00,62.1,35.5,30.42,NE,50,0.0,0.0,37,-99.99,,,0.00,VWS V14.01,2013-05-26 00:30:00,
2013-05-25 21:00:00,59.4,34.4,30.42,NE,50,0.0,0.0,39,-99.99,,,0.00,VWS V14.01,2013-05-26 01:00:00,
2013-05-25 21:30:00,57.9,33.8,30.42,NE,50,0.0,0.0,40,-99.99,,,0.00,VWS V14.01,2013-05-26 01:30:00,
2013-05-25 22:00:00,56.5,32.5,30.42,NE,49,0.0,0.0,40,-99.99,,,0.00,VWS V14.01,2013-05-26 02:00:00,
2013-05-25 22:30:00,56.1,32.2,30.39,NE,50,0.0,0.0,40,-99.99,,,0.00,VWS V14.01,2013-05-26 02:30:00,
2013-05-25 23:00:00,55.9,33.8,30.42,NE,49,0.0,0.0,43,-99.99,,,0.00,VWS V14.01,2013-05-26 03:00:00,
2013-05-25 23:30:00,55.4,32.7,30.42,NE,49,0.0,0.0,42,-99.99,,,0.00,VWS V14.01,2013-05-26 03:30:00,